Weather History for St. Francis, KS

Change the Weather History Date:

Thursday, September 26, 2013

  Actual Average Record
Temperature  
Mean Temperature 66 °F -  
Max Temperature 81 °F 77 °F 85 °F (2014)
Min Temperature 51 °F 45 °F 51 °F (2013)
Cooling Degree Days 1    
Growing Degree Days 16 (Base 50)    
Moisture  
Dew Point 42 °F    
Average Humidity 45    
Maximum Humidity 70    
Minimum Humidity 21    
Precipitation  
Precipitation 0.00 in - - ()
Sea Level Pressure  
Sea Level Pressure 29.66 in    
Wind  
Wind Speed 10 mph (West)    
Max Wind Speed 23 mph    
Max Gust Speed 29 mph    
Visibility 10 miles    
Events      
Averages and records for this station are not official NWS values.
T = Trace of Precipitation, MM = Missing Value Source: NWS Daily Summary

Daily Weather History Graph

Daily Weather History Graph

Search for Another Location

Airport:

Trip Planner

Search our weather history database for the weather conditions in past years. The results will help you decide how hot, cold, wet, or windy it might be!

Date:

Astronomy

Sep. 26, 2013 Rise Set
Actual Time 7:38 AM CDT 7:37 PM CDT
Civil Twilight 7:11 AM CDT 8:04 PM CDT
Nautical Twilight 6:40 AM CDT 8:35 PM CDT
Astronomical Twilight 6:08 AM CDT 9:07 PM CDT
Moon No Moon Rise 2:31 PM CDT (9/26)
Length of Visible Light 12h 52m
Length of Day
11h 58m
Waning Gibbous, 54% of the Moon is Illuminated
Sep 26
Waning Gibbous
Sep 26
Last Quarter
Oct 4
New
Oct 11
First Quarter
Oct 18
Full

Hourly Weather History & Observations

Time (CDT) Temp. Dew Point Humidity Pressure Visibility Wind Dir Wind Speed Gust Speed Precip Events Conditions
12:15 AM 68.0 °F 35.2 °F 30% 29.54 in 10.0 mi SSE 19.6 mph - N/A   Clear
12:35 AM 67.1 °F 35.8 °F 31% 29.54 in 10.0 mi South 23.0 mph 28.8 mph N/A   Clear
12:55 AM 66.4 °F 36.5 °F 33% 29.54 in 10.0 mi South 23.0 mph - N/A   Clear
1:15 AM 65.8 °F 36.7 °F 34% 29.54 in 10.0 mi South 20.7 mph - N/A   Clear
1:35 AM 65.3 °F 36.7 °F 35% 29.54 in 10.0 mi South 20.7 mph 26.5 mph N/A   Clear
1:55 AM 64.6 °F 37.4 °F 37% 29.55 in 10.0 mi South 18.4 mph - N/A   Clear
2:15 AM 62.2 °F 38.3 °F 41% 29.56 in 10.0 mi SW 9.2 mph - N/A   Clear
2:35 AM 61.9 °F 38.7 °F 42% 29.56 in 10.0 mi SSW 12.7 mph - N/A   Clear
2:55 AM 59.9 °F 39.7 °F 47% 29.56 in 10.0 mi SW 10.4 mph - N/A   Clear
3:15 AM 60.1 °F 40.5 °F 48% 29.56 in 10.0 mi SW 11.5 mph - N/A   Clear
3:35 AM 59.5 °F 41.2 °F 51% 29.57 in 10.0 mi SW 10.4 mph - N/A   Clear
3:55 AM 57.2 °F 41.9 °F 57% 29.57 in 10.0 mi SSW 10.4 mph - N/A   Clear
4:15 AM 54.5 °F 41.9 °F 62% 29.61 in 10.0 mi NNW 13.8 mph - N/A   Clear
4:35 AM 58.8 °F 42.8 °F 55% 29.60 in 10.0 mi SSW 3.5 mph - N/A   Clear
4:55 AM 52.0 °F 42.6 °F 70% 29.61 in 10.0 mi SE 4.6 mph - N/A   Clear
5:15 AM 53.8 °F 43.0 °F 67% 29.61 in 10.0 mi SW 4.6 mph - N/A   Clear
5:35 AM 54.0 °F 42.8 °F 66% 29.63 in 10.0 mi West 3.5 mph - N/A   Clear
5:55 AM 55.2 °F 41.5 °F 60% 29.64 in 10.0 mi Calm Calm - N/A   Clear
6:15 AM 56.8 °F 41.4 °F 56% 29.65 in 10.0 mi NW 3.5 mph - N/A   Clear
6:35 AM 55.0 °F 41.7 °F 61% 29.65 in 10.0 mi NW 6.9 mph - N/A   Clear
6:55 AM 52.3 °F 41.2 °F 66% 29.66 in 10.0 mi WNW 5.8 mph - N/A   Clear
7:15 AM 51.6 °F 41.2 °F 68% 29.67 in 10.0 mi NW 3.5 mph - N/A   Clear
7:35 AM 52.0 °F 42.4 °F 70% 29.68 in 10.0 mi NNW 8.1 mph - N/A   Clear
7:55 AM 52.0 °F 42.4 °F 70% 29.69 in 10.0 mi WNW 4.6 mph - N/A   Clear
8:15 AM 53.6 °F 43.7 °F 69% 29.69 in 10.0 mi NW 5.8 mph - N/A   Clear
8:35 AM 54.9 °F 44.1 °F 67% 29.70 in 10.0 mi NW 4.6 mph - N/A   Clear
8:55 AM 56.5 °F 44.8 °F 65% 29.70 in 10.0 mi NW 9.2 mph - N/A   Clear
9:15 AM 58.3 °F 45.1 °F 62% 29.71 in 10.0 mi NNW 9.2 mph - N/A   Clear
9:35 AM 59.2 °F 45.1 °F 60% 29.71 in 10.0 mi NNW 12.7 mph 19.6 mph N/A   Clear
9:55 AM 59.9 °F 45.0 °F 58% 29.72 in 10.0 mi NNW 10.4 mph 19.6 mph N/A   Clear
10:15 AM 60.8 °F 45.3 °F 57% 29.72 in 10.0 mi NW 11.5 mph - N/A   Clear
10:35 AM 62.4 °F 45.5 °F 54% 29.73 in 10.0 mi NNW 10.4 mph - N/A   Clear
10:55 AM 63.7 °F 45.5 °F 52% 29.72 in 10.0 mi NW 10.4 mph - N/A   Clear
11:15 AM 65.3 °F 45.5 °F 49% 29.73 in 10.0 mi North 10.4 mph - N/A   Clear
11:35 AM 66.2 °F 45.5 °F 47% 29.73 in 10.0 mi NNW 8.1 mph - N/A   Clear
11:55 AM 67.8 °F 45.5 °F 45% 29.72 in 10.0 mi North 6.9 mph - N/A   Clear
12:15 PM 68.5 °F 45.3 °F 43% 29.72 in 10.0 mi NW 8.1 mph - N/A   Clear
12:35 PM 69.1 °F 45.3 °F 42% 29.72 in 10.0 mi WNW 5.8 mph - N/A   Clear
12:55 PM 69.6 °F 44.8 °F 41% 29.72 in 10.0 mi West 5.8 mph - N/A   Clear
1:15 PM 71.4 °F 45.1 °F 39% 29.72 in 10.0 mi Calm Calm - N/A   Clear
1:35 PM 72.7 °F 45.0 °F 37% 29.71 in 10.0 mi NNW 4.6 mph - N/A   Clear
1:55 PM 72.9 °F 45.0 °F 37% 29.71 in 10.0 mi North 3.5 mph - N/A   Clear
2:15 PM 74.1 °F 45.0 °F 35% 29.70 in 10.0 mi Calm Calm - N/A   Clear
2:35 PM 76.1 °F 44.1 °F 32% 29.70 in 10.0 mi NE 3.5 mph - N/A   Clear
2:55 PM 75.6 °F 43.7 °F 32% 29.70 in 10.0 mi SSW 4.6 mph - N/A   Clear
3:15 PM 75.6 °F 43.3 °F 32% 29.70 in 10.0 mi Calm Calm - N/A   Clear
3:35 PM 76.8 °F 42.8 °F 30% 29.69 in 10.0 mi Calm Calm - N/A   Clear
3:55 PM 78.8 °F 41.2 °F 26% 29.68 in 10.0 mi South 6.9 mph - N/A   Clear
4:15 PM 79.0 °F 41.2 °F 26% 29.68 in 10.0 mi SW 4.6 mph - N/A   Clear
4:35 PM 80.8 °F 39.7 °F 23% 29.68 in 10.0 mi SSE 10.4 mph - N/A   Clear
4:55 PM 81.7 °F 39.6 °F 22% 29.68 in 10.0 mi SSE 8.1 mph - N/A   Clear
5:15 PM 81.7 °F 38.7 °F 22% 29.67 in 10.0 mi SSW 10.4 mph - N/A   Clear
5:35 PM 81.5 °F 38.1 °F 21% 29.67 in 10.0 mi South 9.2 mph - N/A   Clear
5:55 PM 81.5 °F 38.1 °F 21% 29.66 in 10.0 mi SSW 8.1 mph - N/A   Clear
6:15 PM 81.0 °F 38.7 °F 22% 29.66 in 10.0 mi SSW 5.8 mph - N/A   Clear
6:35 PM 80.6 °F 37.9 °F 22% 29.65 in 10.0 mi WSW 3.5 mph - N/A   Clear
6:55 PM 79.2 °F 39.6 °F 24% 29.65 in 10.0 mi Calm Calm - N/A   Clear
7:15 PM 77.9 °F 38.8 °F 25% 29.65 in 10.0 mi Calm Calm - N/A   Clear
7:35 PM 73.8 °F 44.2 °F 35% 29.65 in 7.0 mi Calm Calm - N/A   Clear
7:55 PM 70.3 °F 42.3 °F 36% 29.65 in 10.0 mi East 4.6 mph - N/A   Clear
8:15 PM 70.3 °F 42.8 °F 37% 29.65 in 10.0 mi Calm Calm - N/A   Clear
8:35 PM 67.5 °F 43.3 °F 42% 29.65 in 10.0 mi Calm Calm - N/A   Clear
8:55 PM 65.5 °F 44.2 °F 46% 29.66 in 10.0 mi Calm Calm - N/A   Clear
9:15 PM 66.0 °F 43.3 °F 44% 29.66 in 10.0 mi Calm Calm - N/A   Clear
9:35 PM 64.6 °F 43.3 °F 46% 29.67 in 10.0 mi ENE 4.6 mph - N/A   Clear
9:55 PM 62.4 °F 43.3 °F 50% 29.66 in 10.0 mi Calm Calm - N/A   Clear
10:15 PM 61.2 °F 44.1 °F 53% 29.66 in 10.0 mi East 3.5 mph - N/A   Clear
10:35 PM 59.7 °F 44.1 °F 56% 29.65 in 10.0 mi NNE 3.5 mph - N/A   Clear
10:55 PM 61.9 °F 43.5 °F 51% 29.65 in 10.0 mi Calm Calm - N/A   Clear
11:15 PM 62.8 °F 42.6 °F 48% 29.65 in 10.0 mi Calm Calm - N/A   Clear
11:35 PM 61.5 °F 43.3 °F 51% 29.64 in 10.0 mi SE 5.8 mph - N/A   Clear
11:55 PM 61.3 °F 43.7 °F 52% 29.65 in 10.0 mi Calm Calm - N/A   Clear